Location: Ariel
(45.9570°N, 122.5700°W)
Time: 09:15:11
(UTC-07:00)

Transit 2A - All Passes

Search period start: 19 July 2019 00:00
Search period end: 29 July 2019 00:00
Orbit: 594 x 964 km, 66.7° (Epoch: 19 July)

Date Brightness Start Highest point End Pass type
(mag) Time Alt. Az. Time Alt. Az. Time Alt. Az.
19 Jul - 02:06:20 10° NNW 02:10:38 23° NE 02:14:36 10° E visible
19 Jul - 03:49:12 10° NW 03:54:28 72° WSW 03:59:11 10° SSE visible
19 Jul - 16:52:23 10° ESE 16:53:29 10° E 16:54:35 10° E daylight
19 Jul - 18:29:26 10° SSW 18:35:41 61° ESE 18:41:39 10° NE daylight
19 Jul - 20:13:42 10° WSW 20:19:18 33° NW 20:24:37 10° NNE daylight
19 Jul - 22:02:17 10° NW 22:04:24 12° NNW 22:06:28 10° N visible
20 Jul - 01:32:25 10° NNW 01:36:12 19° NNE 01:39:43 10° ENE visible
20 Jul - 03:15:03 10° NNW 03:20:23 80° NE 03:25:08 10° SE visible
20 Jul - 05:00:07 10° WNW 05:02:40 14° WSW 05:05:07 10° SW visible
20 Jul - 17:55:41 10° S 18:01:39 45° ESE 18:07:23 10° NE daylight
20 Jul - 19:39:03 10° WSW 19:44:59 42° NW 19:50:37 10° NNE daylight
20 Jul - 21:26:47 10° NW 21:29:48 14° NNW 21:32:44 10° N visible
21 Jul - 00:58:34 10° N 01:01:42 15° NNE 01:04:39 10° ENE visible
21 Jul - 02:40:57 10° NNW 02:46:12 57° NE 02:50:55 10° SE visible
21 Jul - 04:25:06 10° WNW 04:28:51 21° WSW 04:32:21 10° SSW visible
21 Jul - 17:22:08 10° S 17:27:40 33° ESE 17:33:00 10° NE daylight
21 Jul - 19:04:33 10° SW 19:10:45 54° NW 19:16:36 10° NNE daylight
21 Jul - 20:51:29 10° WNW 20:55:16 17° NNW 20:58:54 10° N daylight
22 Jul - 00:24:48 10° N 00:27:08 13° NNE 00:29:23 10° NE visible
22 Jul - 02:06:54 10° NNW 02:11:58 41° NE 02:16:31 10° ESE visible
22 Jul - 03:50:31 10° NW 03:54:59 30° WSW 03:59:04 10° S visible
22 Jul - 16:48:53 10° SSE 16:53:44 24° ESE 16:58:28 10° ENE daylight
22 Jul - 18:30:13 10° SW 18:36:33 72° NW 18:42:32 10° NNE daylight
22 Jul - 20:16:20 10° W 20:20:47 20° NW 20:25:02 10° NNE daylight
22 Jul - 23:51:18 10° N 23:52:33 11° NNE 23:53:45 10° NNE visible
23 Jul - 01:32:55 10° NNW 01:37:40 31° NE 01:41:59 10° ESE visible
23 Jul - 03:16:08 10° NW 03:21:02 44° WSW 03:25:29 10° S visible
23 Jul - 16:16:02 10° SE 16:19:52 17° ESE 16:23:37 10° ENE daylight
23 Jul - 17:56:03 10° SSW 18:02:24 87° ESE 18:08:26 10° NE daylight
23 Jul - 19:41:21 10° W 19:46:20 25° NW 19:51:06 10° NNE daylight
24 Jul - 00:58:57 10° NNW 01:03:17 24° NE 01:07:16 10° E visible
24 Jul - 02:41:52 10° NW 02:47:02 66° WSW 02:51:40 10° SSE visible
24 Jul - 15:44:08 10° ESE 15:46:02 11° E 15:47:56 10° E daylight
24 Jul - 17:22:03 10° SSW 17:28:19 65° ESE 17:34:16 10° NE daylight
24 Jul - 19:06:31 10° WSW 19:11:59 31° NW 19:17:09 10° NNE daylight
24 Jul - 20:55:24 10° NW 20:57:07 11° NNW 20:58:49 10° N daylight
25 Jul - 00:25:03 10° NNW 00:28:51 19° NNE 00:32:24 10° E visible
25 Jul - 02:07:41 10° NNW 02:12:57 86° ENE 02:17:39 10° SSE visible
25 Jul - 03:53:07 10° WNW 03:55:11 12° WSW 03:57:09 10° SW visible
25 Jul - 16:48:15 10° S 16:54:16 48° ESE 17:00:01 10° NE daylight
25 Jul - 18:31:50 10° WSW 18:37:40 39° NW 18:43:11 10° NNE daylight
25 Jul - 20:19:47 10° NW 20:22:31 13° NNW 20:25:10 10° N daylight
25 Jul - 23:51:12 10° N 23:54:22 15° NNE 23:57:22 10° ENE visible
26 Jul - 01:33:35 10° NNW 01:38:48 61° NE 01:43:28 10° SE visible
26 Jul - 03:17:55 10° WNW 03:21:22 19° WSW 03:24:37 10° SSW visible
26 Jul - 16:14:39 10° S 16:20:17 35° ESE 16:25:40 10° NE daylight
26 Jul - 17:57:18 10° SW 18:03:25 51° NW 18:09:10 10° NNE daylight
26 Jul - 19:44:25 10° WNW 19:47:58 16° NNW 19:51:23 10° N daylight
26 Jul - 23:17:26 10° N 23:19:49 13° NNE 23:22:07 10° NE visible
27 Jul - 00:59:32 10° NNW 01:04:35 44° NE 01:09:07 10° ESE visible
27 Jul - 02:43:15 10° NW 02:47:30 28° WSW 02:51:26 10° SSW visible
27 Jul - 15:41:19 10° SSE 15:46:20 25° ESE 15:51:10 10° NE daylight
27 Jul - 17:22:56 10° SW 17:29:13 67° NW 17:35:07 10° NNE daylight
27 Jul - 19:09:14 10° WNW 19:13:28 19° NNW 19:17:32 10° N daylight
27 Jul - 22:43:56 10° N 22:45:14 11° NNE 22:46:31 10° NNE visible
28 Jul - 00:25:32 10° NNW 00:30:17 32° NE 00:34:36 10° ESE visible
28 Jul - 02:08:49 10° NW 02:13:35 41° WSW 02:17:54 10° S visible
28 Jul - 15:08:22 10° SE 15:12:27 18° ESE 15:16:24 10° ENE daylight
28 Jul - 16:48:43 10° SSW 16:55:03 88° NW 17:01:01 10° NNE daylight
28 Jul - 18:34:12 10° W 18:39:02 23° NW 18:43:37 10° NNE daylight
28 Jul - 23:51:35 10° NNW 23:55:56 25° NE 23:59:56 10° E visible
